{"data":{"norad_id":82402,"epoch":"2026-05-24T02:30:26.911296Z","epoch_age_seconds":155567,"freshness":"FRESH","line1":"1 82402U          26144.10447814  .00005138  00000+0  35372-3 0  9991","line2":"2 82402  86.6576  85.2847 0006276 312.9878  47.0831 15.05655230478889","mean_motion":15.0565523,"eccentricity":0.0006276,"inclination_deg":86.6576,"raan_deg":85.2847,"arg_perigee_deg":312.9878,"mean_anomaly_deg":47.0831,"bstar":0.00035372,"rev_number":47888,"period_min":95.639424704154,"perigee_km":545.14732966583,"apogee_km":553.84289349229,"semimajor_km":6927.6321115791,"source":"CELESTRAK","updated_at":"2026-05-25T13:38:11.188492Z"}}